[[{"header":{"parameterUnit":"m.s-1","parameterCategory":1,"la1":30.2991,"la2":30.254,"lo1":-89.0895,"lo2":-89.0444,"dy":0.0017,"dx":0.0017,"nx":28,"ny":28,"refTime":"2023-09-24T09:00:00:Z","depth":0,"parameterNumber":2,"parameterNumberName":"U-component_of_WINDS"},"data":[0,0,0,0,0,0,0,0,0,0,0,0,0,0,0,0,0,0,0,0,0,0,0,0,0,0,0,0,0,0,0,0,0,0,0,0,0,0,0,0,0,0,0,0,0,0,0,0,0,0,0,0,0,0,0,0,0,0,-0.9994,-0.9994,0,-0.9962,-0.9962,-0.9962,-0.9919,-0.9918,-0.9918,-0.9917,-0.9885,-0.9885,-0.9885,0,0,0,0,0,0,0,0,0,0,0,0,0,-1.0021,-1.0021,-0.9994,-0.9994,-0.9994,-0.9962,-0.9962,-0.9962,-0.9919,-0.9918,-0.9917,-0.9917,-0.9885,-0.9885,-0.9885,0,0,0,0,0,0,0,0,0,0,0,0,0,-1.0001,-1.0021,-0.9995,-0.9969,-0.9966,-0.9963,-0.9962,-0.9961,-0.9919,-0.9918,-0.9917,-0.9916,-0.9885,-0.9885,-0.9885,-0.9904,0,0,-0.9884,-0.9884,0,0,0,0,0,0,0,0,-1.0002,-1.0,-0.9973,-0.997,-0.9968,-0.9944,-0.996,-0.9942,-0.992,-0.9937,-0.9917,-0.9916,-0.9905,-0.9903,-0.99,-0.9903,-0.9901,-0.9884,-0.9884,-0.9883,-0.9883,0,0,0,0,0,0,0,-1.0004,-1.0002,-0.9982,-0.9973,-0.9969,-0.9959,-0.9955,-0.9956,-0.9928,-0.9936,-0.9932,-0.9929,-0.9904,-0.99,-0.9899,-0.9901,-0.9884,-0.9884,-0.9883,-0.9883,-0.992,-0.9921,0,0,0,0,0,0,-1.0009,-1.0003,-0.9983,-0.9981,-0.9983,-0.996,-0.9955,-0.9952,-0.9928,-0.9923,-0.993,-0.9927,-0.9901,-0.9899,-0.9897,-0.992,-0.9883,-0.9883,-0.9883,-0.9918,-0.992,-0.9921,0,0,0,0,0,0,-1.001,-1.0007,-0.9984,-0.9991,-0.9987,-0.996,-0.9957,-0.9952,-0.9949,-0.9923,-0.9918,-0.9931,-0.99,-0.9898,-0.9903,-0.9918,-0.9883,-0.9883,-0.9917,-0.9919,-0.992,-0.9963,0,0,0,0,0,0,-1.0011,-1.0008,-1.0015,-0.9991,-0.9987,-0.999,-0.9958,-0.9952,-0.9948,-0.9944,-0.9923,-0.9919,-0.9899,-0.9904,-0.9903,-0.9917,-0.9883,-0.9916,-0.9918,-0.992,-0.9961,-0.9966,-0.9971,0,0,0,0,0,-1.0012,-1.0028,-1.0015,-1.0013,-0.9995,-0.9991,-0.9988,-0.9965,-0.9949,-0.9956,-0.994,-0.992,-0.9916,-0.9905,-0.9903,-0.9917,-0.9915,-0.9917,-0.992,-0.9958,-0.9965,-0.9971,0,0,0,0,0,0,-1.0053,-1.0024,-1.001,-1.0019,-1.0008,-0.9983,-0.9991,-0.9973,-0.9966,-0.9963,-0.9935,-0.993,-0.9939,-0.9929,-0.9916,-0.9936,-0.9913,-0.9915,-0.9942,-0.9949,-0.9954,-0.9957,-0.9882,0,0,0,0,0,-1.0064,-1.0062,-1.0037,-1.0048,-1.0043,-1.0018,-1.0016,-0.9999,-0.9986,-0.9981,-0.9965,-0.9954,-0.9951,-0.9949,-0.9944,-0.9959,-0.9954,-0.9968,-0.9974,-0.9978,-0.9981,-0.9989,-0.9995,-0.9929,-0.9929,-0.9929,0,0,-1.0085,-1.0069,-1.007,-1.0056,-1.0045,-1.0045,-1.0014,-1.0015,-1.0015,-0.9981,-0.9985,-0.9974,-0.996,-0.997,-0.9974,-0.9961,-0.9998,-0.9981,-0.9985,-0.9985,-0.9992,-0.9998,-1.0004,-0.9931,-0.9931,-0.9931,0,0,-1.0123,-1.0111,-1.0119,-1.0109,-1.0093,-1.0077,-1.0079,-1.0058,-1.0049,-1.0052,-1.0027,-1.0027,-1.0022,-1.0013,-1.0008,-1.0045,-1.0026,-1.0044,-1.0072,-1.0081,-1.0086,-1.009,-1.0105,-1.011,-1.0047,-1.0047,-1.0047,0,-1.0152,-1.015,-1.0125,-1.0128,-1.0123,-1.0093,-1.0101,-1.0093,-1.0077,-1.0074,-1.0061,-1.0054,-1.0042,-1.0051,-1.006,-1.0056,-1.0059,-1.0046,-1.0087,-1.0091,-1.0095,-1.0108,-1.0114,-1.0049,-1.0049,-1.0049,-1.0048,0,-1.0187,-1.0186,-1.0195,-1.018,-1.0176,-1.0182,-1.0158,-1.0157,-1.0142,-1.0127,-1.0132,-1.0117,-1.0109,-1.011,-1.0094,-1.0117,-1.011,-1.0092,-1.0068,-1.0104,-1.0116,-1.0121,-1.0053,-1.0052,-1.0051,-1.005,0,0,-1.025,-1.0222,-1.0226,-1.0219,-1.02,-1.02,-1.0205,-1.0197,-1.0198,-1.0188,-1.0192,-1.0189,-1.0172,-1.0167,-1.015,-1.0157,-1.0189,-1.0139,-1.0138,-1.0149,-1.0214,-1.0228,-1.0234,-1.0176,-1.0177,-1.0178,-1.0216,0,-1.0286,-1.0292,-1.027,-1.0283,-1.0283,-1.0254,-1.0259,-1.0248,-1.0235,-1.0234,-1.0219,-1.0218,-1.0196,-1.0193,-1.0199,-1.0184,-1.0202,-1.0181,-1.0181,-1.0181,-1.0186,-1.024,-1.0255,-1.0291,-1.022,-1.0221,-1.0221,0,-1.0328,-1.0321,-1.0333,-1.0315,-1.0314,-1.0318,-1.031,-1.0309,-1.0297,-1.0287,-1.0282,-1.0262,-1.0267,-1.0244,-1.025,-1.0237,-1.0235,-1.0228,-1.0229,-1.0229,-1.0204,-1.0242,-1.0302,-1.0308,-1.0228,-1.0228,-1.0227,0,-1.0375,-1.0368,-1.0375,-1.037,-1.0348,-1.0352,-1.0343,-1.033,-1.0327,-1.0321,-1.0319,-1.0313,-1.031,-1.0306,-1.0286,-1.0271,-1.0295,-1.027,-1.0288,-1.0289,-1.0295,-1.0295,-1.0356,-1.0293,-1.0293,-1.0293,-1.0293,0,-1.0417,-1.0426,-1.0395,-1.04,-1.0409,-1.0385,-1.0395,-1.0384,-1.0372,-1.0375,-1.0349,-1.0352,-1.0325,-1.0325,-1.031,-1.0318,-1.0317,-1.0309,-1.0305,-1.0312,-1.0313,-1.0311,-1.0308,-1.0294,-1.0294,-1.0294,-1.0293,0,-1.0471,-1.045,-1.0456,-1.0435,-1.043,-1.0439,-1.0421,-1.0425,-1.041,-1.0414,-1.0413,-1.0391,-1.039,-1.0369,-1.0364,-1.0353,-1.0368,-1.0359,-1.0373,-1.037,-1.0389,-1.0388,-1.0452,-1.0459,-1.0391,-1.0392,-1.0392,0,-1.0499,-1.0506,-1.0486,-1.0485,-1.0478,-1.0478,-1.0475,-1.0451,-1.045,-1.0437,-1.0442,-1.0439,-1.0436,-1.0435,-1.0419,-1.0415,-1.0406,-1.0429,-1.0405,-1.0412,-1.0408,-1.0408,-1.0409,-1.0434,-1.0435,-1.0436,-1.0436,0,-1.0553,-1.0543,-1.054,-1.0534,-1.0531,-1.0525,-1.0518,-1.0519,-1.0493,-1.0493,-1.0491,-1.0489,-1.0483,-1.0481,-1.0474,-1.0466,-1.0447,-1.0444,-1.0448,-1.0455,-1.0463,-1.046,-1.0387,-1.0442,-1.0442,-1.0441,-1.0441,-1.0441,-1.0596,-1.06,-1.0588,-1.0585,-1.0577,-1.0571,-1.0574,-1.056,-1.0559,-1.0552,-1.0538,-1.054,-1.0529,-1.0518,-1.0511,-1.0512,-1.0501,-1.0506,-1.0508,-1.051,-1.0514,-1.0462,-1.0511,-1.051,-1.051,-1.051,-1.051,0,-1.0649,-1.0639,-1.0638,-1.0628,-1.0627,-1.0609,-1.06,-1.06,-1.0602,-1.0593,-1.059,-1.0589,-1.0587,-1.0571,-1.0567,-1.0571,-1.0562,-1.0571,-1.0571,-1.0569,-1.0524,-1.0521,-1.0578,-1.0578,-1.0578,-1.0578,-1.0578,-1.0578,-1.0677,-1.0684,-1.0673,-1.0677,-1.0667,-1.0668,-1.0665,-1.0659,-1.0652,-1.0652,-1.065,-1.064,-1.0628,-1.0624,-1.0621,-1.0617,-1.0617,-1.0628,-1.0621,-1.0579,-1.0572,-1.0566,-1.0564,-1.0628,-1.0629,-1.0667,-1.0667,-1.0667]},{"header":{"parameterUnit":"m.s-1","parameterCategory":1,"la1":30.2991,"la2":30.254,"lo1":-89.0895,"lo2":-89.0444,"dy":0.0017,"dx":0.0017,"nx":28,"ny":28,"refTime":"2023-09-24T09:00:00:Z","depth":0,"parameterNumber":3,"parameterNumberName":"V-component_of_WINDS"},"data":[0,0,0,0,0,0,0,0,0,0,0,0,0,0,0,0,0,0,0,0,0,0,0,0,0,0,0,0,0,0,0,0,0,0,0,0,0,0,0,0,0,0,0,0,0,0,0,0,0,0,0,0,0,0,0,0,0,0,4.501,4.5009,0,4.4974,4.4974,4.4974,4.4888,4.4887,4.4885,4.4883,4.4848,4.4849,4.485,0,0,0,0,0,0,0,0,0,0,0,0,0,4.5005,4.5006,4.501,4.5009,4.5009,4.4974,4.4974,4.4973,4.4889,4.4886,4.4884,4.4882,4.4848,4.4849,4.485,0,0,0,0,0,0,0,0,0,0,0,0,0,4.4992,4.5006,4.501,4.4962,4.4958,4.4974,4.4974,4.4973,4.4889,4.4886,4.4884,4.4881,4.4848,4.4849,4.485,4.4911,0,0,4.4854,4.4854,0,0,0,0,0,0,0,0,4.4993,4.4993,4.497,4.4966,4.4961,4.4933,4.4959,4.4952,4.489,4.4915,4.4883,4.488,4.4879,4.4877,4.4877,4.4909,4.4908,4.4854,4.4854,4.4855,4.4855,0,0,0,0,0,0,0,4.4994,4.4994,4.4996,4.497,4.4964,4.4943,4.4938,4.4958,4.4913,4.4913,4.4907,4.4903,4.4876,4.4876,4.4875,4.4907,4.4854,4.4855,4.4855,4.4856,4.4986,4.4989,0,0,0,0,0,0,4.5002,4.4995,4.4997,4.4995,4.4971,4.4946,4.494,4.4945,4.4912,4.4905,4.4906,4.49,4.4875,4.4874,4.4874,4.4941,4.4855,4.4856,4.4856,4.4983,4.4987,4.499,0,0,0,0,0,0,4.5002,4.5003,4.4998,4.4993,4.4991,4.4948,4.4954,4.4945,4.4945,4.4907,4.4898,4.4914,4.4873,4.4872,4.4902,4.4939,4.4856,4.4857,4.498,4.4984,4.4988,4.5077,0,0,0,0,0,0,4.5002,4.5003,4.5026,4.4994,4.4992,4.5027,4.4956,4.4947,4.4947,4.4938,4.4912,4.4905,4.4871,4.49,4.4903,4.4939,4.4858,4.4977,4.4982,4.4987,4.5071,4.5084,4.5095,0,0,0,0,0,4.5002,4.5053,4.5027,4.5028,4.5018,4.5029,4.5028,4.4987,4.495,4.4972,4.4948,4.4906,4.4935,4.4904,4.4906,4.4943,4.4974,4.498,4.4987,4.5065,4.5081,4.5095,0,0,0,0,0,0,4.509,4.5048,4.5019,4.506,4.5049,4.5015,4.5041,4.5005,4.5004,4.4996,4.4946,4.4941,4.4977,4.4963,4.493,4.4999,4.4947,4.4954,4.5007,4.5022,4.5034,4.5036,4.4859,0,0,0,0,0,4.5114,4.5126,4.5088,4.5129,4.5124,4.5084,4.5087,4.5057,4.5043,4.5038,4.5015,4.5004,4.501,4.5015,4.5019,4.5069,4.5061,4.5095,4.5107,4.5118,4.5124,4.5148,4.5162,4.501,4.501,4.501,0,0,4.5164,4.5142,4.5153,4.5146,4.5133,4.5147,4.5081,4.5098,4.5107,4.5041,4.5066,4.505,4.5034,4.5074,4.509,4.5063,4.5164,4.5126,4.5134,4.5134,4.5156,4.517,4.5183,4.5015,4.5014,4.5013,0,0,4.5261,4.5247,4.5278,4.5267,4.5248,4.5221,4.5229,4.52,4.5186,4.5212,4.5161,4.5173,4.5185,4.5175,4.5172,4.5266,4.5227,4.5269,4.5332,4.5356,4.5368,4.5378,4.541,4.5423,4.5275,4.5275,4.5276,0,4.5326,4.5343,4.5299,4.5319,4.5317,4.5257,4.5288,4.528,4.5264,4.5264,4.5234,4.5247,4.5233,4.5269,4.5292,4.5291,4.5298,4.527,4.537,4.538,4.5388,4.5419,4.5431,4.528,4.528,4.5279,4.5279,0,4.5423,4.5436,4.5464,4.5449,4.545,4.5476,4.5436,4.5443,4.5412,4.5388,4.5415,4.5395,4.5393,4.54,4.5371,4.5432,4.5415,4.5379,4.5325,4.5409,4.5436,4.5447,4.5288,4.5286,4.5284,4.5283,0,0,4.5573,4.5534,4.5544,4.5536,4.5512,4.5521,4.5545,4.5542,4.5549,4.554,4.5558,4.557,4.5535,4.5532,4.5501,4.5523,4.5597,4.5483,4.5482,4.5503,4.5661,4.5688,4.5702,4.5572,4.5574,4.5575,4.5662,0,4.5664,4.57,4.566,4.5705,4.5716,4.5659,4.5679,4.5667,4.5646,4.5652,4.5629,4.5637,4.5592,4.5589,4.5608,4.5584,4.5627,4.5577,4.5587,4.5588,4.5591,4.5716,4.5745,4.5828,4.5673,4.5674,4.5676,0,4.5773,4.5769,4.5814,4.5786,4.5789,4.5808,4.5802,4.581,4.5794,4.5777,4.5773,4.5736,4.5757,4.5707,4.5734,4.5701,4.5703,4.5692,4.5694,4.5692,4.5636,4.5717,4.5853,4.5865,4.5692,4.5691,4.569,0,4.5877,4.5883,4.591,4.5905,4.5874,4.5888,4.5876,4.5857,4.5858,4.5854,4.5854,4.5852,4.5851,4.5851,4.5814,4.5781,4.5846,4.5793,4.5832,4.5833,4.5847,4.5847,4.5985,4.5852,4.5851,4.5851,4.5851,0,4.598,4.601,4.5956,4.5972,4.6004,4.5959,4.5992,4.5973,4.5958,4.597,4.5922,4.5935,4.5887,4.5895,4.5867,4.5893,4.5893,4.588,4.5872,4.5883,4.5885,4.5883,4.5875,4.5854,4.5854,4.5853,4.5852,0,4.61,4.6065,4.6091,4.6059,4.6052,4.6076,4.6049,4.6063,4.6039,4.6055,4.6057,4.6019,4.6025,4.5989,4.599,4.5971,4.6011,4.5994,4.6016,4.601,4.605,4.6046,4.619,4.6207,4.6065,4.6066,4.6068,0,4.6168,4.6189,4.6159,4.6164,4.6154,4.6162,4.6162,4.6119,4.6122,4.6106,4.6122,4.6125,4.6124,4.6137,4.611,4.611,4.6091,4.6142,4.6091,4.6102,4.609,4.6089,4.609,4.6152,4.6154,4.6155,4.6157,0,4.6292,4.6273,4.6275,4.6271,4.6273,4.6268,4.626,4.6267,4.622,4.6225,4.6231,4.6231,4.6231,4.6234,4.6228,4.6216,4.6178,4.6173,4.6182,4.6193,4.6204,4.6197,4.6043,4.617,4.6168,4.6167,4.6167,4.6166,4.6386,4.6402,4.6383,4.6387,4.6376,4.637,4.6381,4.6358,4.6362,4.6358,4.6333,4.6343,4.6327,4.6316,4.6307,4.6315,4.629,4.6304,4.6307,4.631,4.6317,4.6204,4.6314,4.6313,4.6313,4.6312,4.6312,0,4.6506,4.6491,4.6495,4.6485,4.6488,4.6452,4.6442,4.6447,4.6456,4.6444,4.6444,4.6451,4.6454,4.6427,4.6426,4.6437,4.642,4.6438,4.6436,4.6434,4.6339,4.6331,4.6452,4.6452,4.6452,4.6452,4.6452,4.6452,4.6568,4.6593,4.6572,4.6591,4.6576,4.6585,4.6582,4.6576,4.6566,4.6575,4.6576,4.6559,4.654,4.6538,4.6539,4.6531,4.6532,4.6556,4.6542,4.6454,4.644,4.6427,4.6419,4.6557,4.6557,4.6635,4.6636,4.6637]}]]